www.pogodaiklimat.ru

Погода и климат >> Архив погоды >> Украина >> Синельниково


ПОГОДА в Синельниково

  • Прогноз погоды в Синельниково
  • Монитор погоды в Синельниково

АРХИВ ПОГОДЫ в Синельниково

Время (UTC), дата Ветер
(напр.,м/с)
 
Видим.   Явления Облачность Т
(С)
Тd
(С)
f
(%)
Тe
(С)
Тes
(С)
Комфортность P
(гПа)
Po
(гПа)
Тmin
(С)
Tmax
(С)
R
(мм)
R24
(мм)
S
(см)
21 16.09 ЮЗ 4 10 км 3/0
[Ac lent]
+17.8 +9.9 60 +18 +18 1009.8 992.6
00 17.09 ЮЗ 4 10 км 8/0
[Ac lent]
+16.6 +10.2 66 +16 +16 1008.9 991.7
03 17.09 ЮЗ 3 10 км 9/8 1000 м
[Sc Ac trans]
+15.2 +9.8 70 +15 +15 1008.6 991.3
06 17.09 З 3 20 км 10/10 1000 м
[Sc]
+16.7 +8.5 58 +17 +17 1009.1 991.9 +15.0
09 17.09 ЮЗ 2 10 км слаб. ливневой дождь 10/10 800 м
[Cb cap]
+13.8 +9.5 75 +13 +13 1010.2 992.8
12 17.09 Ю 2 20 км {ливн. осадки} 10/10 960 м
[Cb cap]
+15.0 +10.5 74 +15 +15 1008.6 991.3
15 17.09 З 2 20 км 6/6 1200 м
[Cu med, cong]
+15.8 +10.9 73 +16 +16 1008.3 991.0
18 17.09 Ю 2 10 км ясно +11.4 +8.1 80 +10 +10 1009.4 991.9 +16.7 1
21 17.09 Ю 2 10 км ясно +11.0 +7.9 81 +10 +10 1009.0 991.4
00 18.09 Ю 2 10 км 9/0
[Ac As]
+12.5 +9.1 80 +12 +12 1007.9 990.4
06 18.09 ЮЗ 3 2000 м слаб. ливневой дождь 10/10 720 м
[Cb cap]
+12.7 +11.2 91 +11 +11 1006.1 988.7 +10.4 2
09 18.09 ЮЗ 3 20 км в посл. час ливневой дождь {гроза} 8/8 800 м
[Cb cap]
+13.4 +10.9 85 +12 +14 1006.0 988.6
12 18.09 З 8 20 км {гроза, ливн. осадки} 9/9 660 м
[Cb cap]
+15.8 +8.6 62 +14 +14 1005.9 988.7
15 18.09 З 6 20 км 3/3 720 м
[Cb cap]
+14.5 +10.0 74 +13 +13 1005.0 987.7
18 18.09 З 6 10 км ясно +10.4 +2.5 58 +7 +7 1011.1 993.5 +16.6 0.4
21 18.09 З 3 10 км ясно +8.8 +2.7 66 +7 +7 1013.5 995.7
00 19.09 З 3 10 км ясно +7.6 +3.9 77 +5 +5 1015.3 997.4
03 19.09 З 4 10 км ясно +6.5 +2.9 78 +3 +3 1016.9 998.9
06 19.09 З 3 20 км 4/4 700 м
[Cu hum]
+9.3 +5.1 75 +7 +9 1019.2 1001.4 +6.0
12 19.09 З 6 20 км 8/8 930 м
[Cu hum]
+17.3 +2.6 37 +17 +17 1018.0 1000.7
15 19.09 З 4 20 км 6/6 930 м
[Cu med, cong]
+15.6 +0.8 37 +15 +15 1018.0 1000.6
18 19.09 С 2 10 км ясно +10.6 +2.7 58 +10 +10 1019.5 1001.7 +17.9
21 19.09 штиль 0 10 км 4/0
[Cc]
+5.1 +2.6 84 +4 +4 1019.9 1001.8
00 20.09 штиль 0 10 км ясно +5.4 +3.0 85 +4 +4 1019.4 1001.3
03 20.09 штиль 0 10 км 1/0
[Cc]
+3.4 +1.1 85 +2 +2 1019.0 1000.8
06 20.09 СЗ 2 20 км ясно +9.9 +3.7 65 +9 +12 1018.0 1000.2 +2.8
09 20.09 З 3 20 км 8/8 1110 м
[Cu med, cong]
+14.4 +2.8 46 +14 +15 1016.8 999.3
12 20.09 СЗ 3 20 км гроза без осадков 9/8 750 м
[Cb cap Cc]
+14.1 +3.2 48 +13 +14 1015.5 998.0
15 20.09 СЗ 2 20 км {гроза} 3/3 1000 м
[Cu hum]
+13.8 +3.1 48 +14 +14 1015.4 997.9
18 20.09 З 1 10 км ясно +8.8 +3.2 68 +8 +8 1016.8 999.0 +15.6
21 20.09 СЗ 3 10 км 8/0
[Ac trans]
+8.7 +3.6 70 +6 +6 1017.2 999.4
00 21.09 СЗ 2 10 км 4/0
[Ac trans]
+6.5 +3.4 81 +4 +4 1017.2 999.2
03 21.09 СЗ 3 10 км 9/0
[Ac trans]
+7.4 +4.2 80 +5 +5 1017.9 1000.0
06 21.09 СЗ 3 20 км 6/6 960 м
[Cu hum]
+8.0 +4.3 77 +5 +6 1018.8 1000.9 +5.7
09 21.09 СЗ 4 20 км 8/8 800 м
[Cb cap]
+11.5 +2.8 55 +10 +11 1018.8 1001.1
12 21.09 СЗ 4 20 км 9/9 750 м
[Cb cap]
+11.4 +1.4 50 +10 +10 1019.4 1001.7
15 21.09 З 3 20 км 6/6 750 м
[Cb cap]
+10.5 +1.4 53 +9 +9 1019.6 1001.8
18 21.09 ЮЗ 3 10 км ясно +7.5 +2.4 70 +5 +5 1020.7 1002.7 +12.9
00 22.09 ЮЗ 3 10 км 9/0
[Ac trans]
+7.3 +1.4 66 +5 +5 1018.3 1000.3
06 22.09 З 6 20 км 10/10 930 м
[Sc]
+11.1 +5.5 68 +8 +8 1015.2 997.5 +5.6
12 22.09 З 6 20 км 9/8 960 м
[Cb cap Ac lent]
+16.8 +7.2 53 +16 +16 1013.8 996.5
18 22.09 З 4 10 км 3/0
[Ac lent]
+14.6 +7.5 62 +13 +13 1014.5 997.1 +17.2
00 23.09 ЮЗ 4 10 км ясно +9.4 +6.4 82 +7 +7 1014.1 996.3
06 23.09 СВ 4 20 км 10/10 960 м
[Sc]
+9.5 +3.8 68 +7 +7 1016.9 999.1 +6.5
12 23.09 С 4 20 км 8/6 930 м
[Cu hum Ac lent]
+13.8 +1.6 43 +13 +14 1017.7 1000.2
18 23.09 штиль 0 10 км ясно +6.3 +0.4 66 +6 +6 1019.9 1001.9 +14.3

 

Местоположение метеостанции Синельниково (Днепропетровская область, Украина): широта 48.40 долгота 35.50 высота над уровнем моря 146 м.

В архиве по умолчанию представлена погода в Синельниково за последнюю неделю. Архивные данные за месяц целиком и за предыдущие месяцы, начиная с января 2011 года, Вы можете получить, выбрав интересующий диапазон дат из раскрывающегося списка и нажав кнопку "Ввод!".


*Определитесь, кто Вы:
робот инопланетянин человек

Внимание! Время в таблицах - всемирное. Для получения местного времени необходимо прибавить поправку, которая равна 2 ч.

Смотрите также архив погоды в соседних городах и на ближайших метеорологических станциях:

Погода в Павлограде (Днепропетровская область, Украина) (28 км)
Погода в Днепре (Днепропетровская область, Украина) (45 км)
Погода в Губинихе (Днепропетровская область, Украина) (48 км)
Погода в Чаплино (Днепропетровская область, Украина) (62 км)
Погода в Запорожье (Запорожская область, Украина) (76 км)
Погода в Александрополе (Днепропетровская область, Украина) (81 км)
Погода в Лозовой (Харьковская область, Украина) (82 км)
Погода в Гуляйполе (Запорожская область, Украина) (99 км)
Погода в Лошкаревке (Днепропетровская область, Украина) (106 км)
Погода в Краснограде (Харьковская область, Украина) (109 км)

Пояснения к столбцам:

Ветер - указаны скорость ветра в м/с - средняя за 10 мин, порывы в срок и между сроками (в фигурных скобках) и направление, откуда дует ветер: С - северный, СВ - северо-восточный, В - восточный, ЮВ - юго-восточный, Ю - южный, ЮЗ - юго-западный, З - западный, СЗ - северо-западный.
Видимость - горизонтальная дальность видимости в метрах или километрах. При видимости от 1 до 10 км при отсутствии осадков обычно наблюдается дымка, при ухудшении видимости до 1 км и менее - туман. В сухую погоду видимость может ухудшаться дымом, пылью или мглою.
Явления - указаны атмосферные явления, наблюдавшиеся в срок или в последний час перед сроком; фигурными скобками обозначены явления, наблюдавшиеся между сроками (за 1-3 часа до срока); квадратными скобками обозначены град или гололедные отложения с указанием их диаметра в мм.
Облачность - указаны через наклонную черту общая и нижняя облачность в баллах и высота нижней границы облаков в метрах; квадратными скобками обозначены формы облаков: Ci - перистые, Cs - перисто-слоистые, Cc - перисто-кучевые, Ac - высококучевые, As - высокослоистые, Sc - слоисто-кучевые, Ns - слоисто-дождевые, Cu - кучевые, Cb - кучево-дождевые. Подробнее классификацию облаков см. в Атласе облаков (PDF).
T - Температура воздуха - температура, измеренная на высоте 2 м над землей.
Td - Температура точки росы - температура, при понижении до которой содержащийся в воздухе водяной пар достигнет насыщения.
f - Относительная влажность воздуха - влажноcть воздуха, измеренная на высоте 2 м над землей.
Te - Эффективная температура - температура, которую ощущает одетый по сезону человек в тени. Характеристика душности погоды. При расчете учитывается влияние влажности воздуха и скорости ветра на теплоощущения человека.
Tes - Эффективная температура на солнце - температура, которую ощущает человек, с поправкой на солнечный нагрев. Характеристика знойности погоды. Зависит от высоты солнца над горизонтом, облачности и скорости ветра. Ночью, в пасмурную погоду, а также при ветре 12 м/с и более поправка равна нулю.
P - Атмосферное давление - приведенное к уровню моря атмосферное давление.
Po - Атмосферное давление - измеренное на уровне метеостанции атмосферное давление.
Tmin - Минимальная температура - минимум температуры воздуха на высоте 2 м над землей.
Tmax - Максимальная температура - максимум температуры воздуха на высоте 2 м над землей.
R - Количество осадков - Количество выпавших осадков за период времени, мм. При наведении курсора мыши на число - период времени, за который выпало указанное количество осадков.
R24 - Количество осадков - Количество выпавших осадков за 24 часа, мм.
S - Снежный покров - Высота снежного покрова, см. При наведении курсора мыши на число - состояние снежного покрова и степень покрытия местности в баллах.